START_TIME,STEP,MOV.,P11,t_acc.,P23,t_acc.,P27,t_acc.,A4,t_acc.
1981-08-27 03:00:23.930 ,3,0,0.,4.8,0.,4.8,0.,4.8,0.,4.8
1981-08-27 03:00:28.730 ,3,0,0.,4.8,0.,4.8,0.,4.8,0.,4.8
1981-08-27 03:00:33.530 ,3,0,0.,4.8,0.,4.8,0.,4.8,0.,4.8
1981-08-27 03:00:38.330 ,3,0,0.,4.8,0.,4.8,0.,4.8,0.,4.8
1981-08-27 03:00:43.130 ,3,0,0.,4.8,0.,4.8,0.,4.8,0.,4.8
1981-08-27 03:00:47.930 ,4,0,0.,4.8,0.,4.8,0.,4.8,0.,4.8
1981-08-27 03:00:52.730 ,4,0,0.,4.8,0.,4.8,0.,4.8,0.,4.8
1981-08-27 03:00:57.530 ,4,0,0.,4.8,0.,4.8,0.,4.8,0.,4.8
1981-08-27 03:01:02.330 ,4,0,0.,4.8,0.,4.8,0.,4.8,0.,4.8
1981-08-27 03:01:07.130 ,4,0,0.,4.8,0.,4.8,0.,4.8,0.,4.8
1981-08-27 03:01:11.930 ,4,0,0.,4.8,0.,4.8,0.,4.8,0.,4.8
1981-08-27 03:01:16.730 ,4,0,0.,4.8,0.,4.8,0.,4.8,0.,4.8
1981-08-27 03:01:21.530 ,4,0,0.,4.8,0.,4.8,0.,4.8,0.,4.8
1981-08-27 03:01:26.330 ,4,0,0.,4.8,0.,4.8,0.,4.8,0.,4.8
1981-08-27 03:01:31.130 ,4,0,0.,4.8,0.,4.8,0.,4.8,0.,4.8
1981-08-27 03:01:35.930 ,5,0,0.,4.8,0.,4.8,0.,4.8,0.,4.8
1981-08-27 03:01:40.730 ,5,0,0.,4.8,0.,4.8,0.,4.8,0.,4.8
1981-08-27 03:01:45.530 ,5,0,0.,4.8,0.,4.8,0.,4.8,0.,4.8
1981-08-27 03:01:50.330 ,5,0,0.,4.8,0.,4.8,0.,4.8,0.,4.8
1981-08-27 03:01:55.130 ,5,0,0.,4.8,0.,4.8,0.,4.8,0.,4.8
1981-08-27 03:01:59.930 ,5,0,0.,4.8,0.,4.8,0.,4.8,0.,4.8
1981-08-27 03:02:04.730 ,5,0,0.,4.8,0.,4.8,0.,4.8,0.,4.8
1981-08-27 03:02:09.530 ,5,0,0.,4.8,0.,4.8,0.,4.8,0.,4.8
1981-08-27 03:02:14.330 ,5,0,0.,4.8,0.,4.8,0.,4.8,0.,4.8
1981-08-27 03:02:19.130 ,5,0,0.,4.8,0.,4.8,0.,4.8,0.,4.8
1981-08-27 03:02:23.930 ,6,0,0.,4.8,0.,4.8,0.,4.8,0.,4.8
1981-08-27 03:02:28.730 ,6,0,0.,4.8,0.,4.8,0.,4.8,0.,4.8
1981-08-27 03:02:33.530 ,6,0,0.,4.8,0.,4.8,0.,4.8,0.,4.8
1981-08-27 03:02:38.330 ,6,0,0.,4.8,0.,4.8,0.,4.8,0.,4.8
1981-08-27 03:02:43.130 ,6,0,0.,4.8,0.,4.8,0.,4.8,0.,4.8
1981-08-27 03:02:47.930 ,6,0,0.,4.8,0.,4.8,0.,4.8,0.,4.8
1981-08-27 03:02:52.730 ,6,0,0.,4.8,0.,4.8,0.,4.8,0.,4.8
1981-08-27 03:02:57.530 ,6,0,0.,4.8,0.,4.8,0.,4.8,0.,4.8
1981-08-27 03:03:02.330 ,6,0,0.,4.8,0.,4.8,0.,4.8,0.,4.8
1981-08-27 03:03:07.130 ,6,0,0.,4.8,0.,4.8,0.,4.8,0.,4.8
1981-08-27 03:03:11.930 ,7,0,0.,4.8,0.,4.8,0.,4.8,0.,4.8
1981-08-27 03:03:16.730 ,7,0,0.,4.8,0.,4.8,0.,4.8,0.,4.8
1981-08-27 03:03:21.530 ,7,0,0.,4.8,0.,4.8,0.,4.8,0.,4.8
1981-08-27 03:03:26.330 ,7,0,0.,4.8,0.,4.8,0.,4.8,0.,4.8
1981-08-27 03:03:31.130 ,7,0,0.,4.8,0.,4.8,0.,4.8,0.,4.8
1981-08-27 03:03:35.930 ,7,0,0.,4.8,0.,4.8,0.,4.8,0.,4.8
1981-08-27 03:03:40.730 ,7,0,0.,4.8,0.,4.8,0.,4.8,0.,4.8
1981-08-27 03:03:45.530 ,7,0,0.,4.8,0.,4.8,0.,4.8,0.,4.8
1981-08-27 03:03:50.330 ,7,0,0.,4.8,0.,4.8,0.,4.8,0.,4.8
1981-08-27 03:03:55.130 ,7,0,0.,4.8,0.,4.8,0.,4.8,0.,4.8
1981-08-27 03:03:59.930 ,7,0,0.,4.8,0.,4.8,0.,4.8,0.,4.8
1981-08-27 03:04:04.730 ,7,0,0.,4.8,0.,4.8,0.,4.8,0.,4.8
1981-08-27 03:04:09.530 ,7,0,0.,4.8,0.,4.8,0.,4.8,0.,4.8
1981-08-27 03:04:14.330 ,7,0,0.,4.8,0.,4.8,0.,4.8,0.,4.8
1981-08-27 03:04:19.130 ,7,0,0.,4.8,0.,4.8,0.,4.8,0.,4.8
1981-08-27 03:04:23.930 ,7,0,0.,4.8,0.,4.8,0.,4.8,0.,4.8
1981-08-27 03:04:28.730 ,7,0,0.,4.8,0.,4.8,0.,4.8,0.,4.8
1981-08-27 03:04:33.530 ,7,0,0.,4.8,0.,4.8,0.,4.8,0.,4.8
1981-08-27 03:04:38.330 ,7,0,0.,4.8,0.,4.8,0.,4.8,0.,4.8
1981-08-27 03:04:43.130 ,7,0,0.,4.8,0.,4.8,0.,4.8,0.,4.8
1981-08-27 03:04:47.930 ,6,0,0.,4.8,0.,4.8,0.,4.8,0.,4.8
1981-08-27 03:04:52.730 ,6,0,0.,4.8,0.,4.8,0.,4.8,0.,4.8
1981-08-27 03:04:57.530 ,6,0,0.,4.8,0.,4.8,0.,4.8,0.,4.8
1981-08-27 03:05:02.330 ,6,0,0.,4.8,0.,4.8,0.,4.8,0.,4.8
1981-08-27 03:05:07.130 ,6,0,0.,4.8,0.,4.8,0.,4.8,0.,4.8
1981-08-27 03:05:11.930 ,6,0,0.,4.8,0.,4.8,0.,4.8,0.,4.8
1981-08-27 03:05:16.730 ,6,0,0.,4.8,0.,4.8,0.,4.8,0.,4.8
1981-08-27 03:05:21.530 ,6,0,0.,4.8,0.,4.8,0.,4.8,0.,4.8
1981-08-27 03:05:26.330 ,6,0,0.,4.8,0.,4.8,0.,4.8,0.,4.8
1981-08-27 03:05:31.130 ,6,0,0.,4.8,0.,4.8,0.,4.8,0.,4.8
1981-08-27 03:05:35.930 ,5,0,0.,4.8,0.,4.8,0.,4.8,0.,4.8
1981-08-27 03:05:40.730 ,5,0,0.,4.8,0.,4.8,0.,4.8,0.,4.8
1981-08-27 03:05:45.530 ,5,0,0.,4.8,0.,4.8,0.,4.8,0.,4.8
1981-08-27 03:05:50.330 ,5,0,0.,4.8,0.,4.8,0.,4.8,0.,4.8
1981-08-27 03:05:55.130 ,5,0,0.,4.8,0.,4.8,0.,4.8,0.,4.8
1981-08-27 03:05:59.930 ,5,0,0.,4.8,0.,4.8,0.,4.8,0.,4.8
1981-08-27 03:06:04.730 ,5,0,0.,4.8,0.,4.8,0.,4.8,0.,4.8
1981-08-27 03:06:09.530 ,5,0,0.,4.8,0.,4.8,0.,4.8,0.,4.8
1981-08-27 03:06:14.330 ,5,0,0.,4.8,0.,4.8,0.,4.8,0.,4.8
1981-08-27 03:06:19.130 ,5,0,0.,4.8,0.,4.8,0.,4.8,0.,4.8
1981-08-27 03:06:23.930 ,4,0,0.,4.8,0.,4.8,0.,4.8,0.,4.8
1981-08-27 03:06:28.730 ,4,0,0.,4.8,0.,4.8,0.,4.8,0.,4.8
1981-08-27 03:06:33.530 ,4,0,0.,4.8,0.,4.8,0.,4.8,0.,4.8
1981-08-27 03:06:38.330 ,4,0,0.,4.8,0.,4.8,0.,4.8,0.,4.8
1981-08-27 03:06:43.130 ,4,0,0.,4.8,0.,4.8,0.,4.8,0.,4.8
1981-08-27 03:06:47.930 ,4,0,0.,4.8,0.,4.8,0.,4.8,0.,4.8
1981-08-27 03:06:52.730 ,4,0,0.,4.8,0.,4.8,0.,4.8,0.,4.8
1981-08-27 03:06:57.530 ,4,0,0.,4.8,0.,4.8,0.,4.8,0.,4.8
1981-08-27 03:07:02.330 ,4,0,0.,4.8,0.,4.8,0.,4.8,0.,4.8
1981-08-27 03:07:07.130 ,4,0,0.,4.8,0.,4.8,0.,4.8,0.,4.8
1981-08-27 03:07:11.930 ,3,0,0.,4.8,0.,4.8,0.,4.8,0.,4.8
1981-08-27 03:07:16.730 ,3,0,0.,4.8,0.,4.8,0.,4.8,0.,4.8
1981-08-27 03:07:21.530 ,3,0,0.,4.8,0.,4.8,0.,4.8,0.,4.8
1981-08-27 03:07:26.330 ,3,0,0.,4.8,0.,4.8,0.,4.8,0.,4.8
1981-08-27 03:07:31.130 ,3,0,0.,4.8,0.,4.8,0.,4.8,0.,4.8
1981-08-27 03:07:35.930 ,3,0,0.,4.8,0.,4.8,0.,4.8,0.,4.8
1981-08-27 03:07:40.730 ,3,0,0.,4.8,0.,4.8,0.,4.8,0.,4.8
1981-08-27 03:07:45.530 ,3,0,0.,4.8,0.,4.8,0.,4.8,0.,4.8
1981-08-27 03:07:50.330 ,3,0,0.,4.8,0.,4.8,0.,4.8,0.,4.8
1981-08-27 03:07:55.130 ,3,0,0.,4.8,0.,4.8,0.,4.8,0.,4.8
1981-08-27 03:07:59.930 ,2,0,0.,4.8,0.,4.8,0.,4.8,0.,4.8
1981-08-27 03:08:04.730 ,2,0,0.,4.8,0.,4.8,0.,4.8,0.,4.8
1981-08-27 03:08:09.530 ,2,0,0.,4.8,0.,4.8,0.,4.8,0.,4.8
1981-08-27 03:08:14.330 ,2,0,0.,4.8,0.,4.8,0.,4.8,0.,4.8
1981-08-27 03:08:19.130 ,2,0,0.,4.8,0.,4.8,0.,4.8,0.,4.8
1981-08-27 03:08:23.930 ,2,0,0.,4.8,0.,4.8,0.,4.8,0.,4.8
1981-08-27 03:08:28.730 ,2,0,0.,4.8,0.,4.8,0.,4.8,0.,4.8
1981-08-27 03:08:33.530 ,2,0,0.,4.8,0.,4.8,0.,4.8,0.,4.8
1981-08-27 03:08:38.330 ,2,0,0.,4.8,0.,4.8,0.,4.8,0.,4.8
1981-08-27 03:08:43.130 ,2,0,0.,4.8,0.,4.8,0.,4.8,0.,4.8
1981-08-27 03:08:47.930 ,1,0,0.,4.8,0.,4.8,0.,4.8,0.,4.8
1981-08-27 03:08:52.730 ,1,0,0.,4.8,0.,4.8,0.,4.8,0.,4.8
1981-08-27 03:08:57.530 ,1,0,0.,4.8,0.,4.8,0.,4.8,0.,4.8
1981-08-27 03:09:02.330 ,1,0,0.,4.8,0.,4.8,0.,4.8,0.,4.8
1981-08-27 03:09:07.130 ,1,0,0.,4.8,0.,4.8,0.,4.8,0.,4.8
1981-08-27 03:09:11.930 ,1,0,0.,4.8,0.,4.8,0.,4.8,0.,4.8
1981-08-27 03:09:16.730 ,1,0,0.,4.8,0.,4.8,0.,4.8,0.,4.8
1981-08-27 03:09:21.530 ,1,0,0.,4.8,0.,4.8,0.,4.8,0.,4.8
1981-08-27 03:09:26.330 ,1,0,0.,4.8,0.,4.8,0.,4.8,0.,4.8
1981-08-27 03:09:31.130 ,1,0,0.,4.8,0.,4.8,0.,4.8,0.,4.8
1981-08-27 03:09:35.930 ,0,0,0.,4.8,0.,4.8,0.,4.8,0.,4.8
1981-08-27 03:09:40.730 ,0,0,0.,4.8,0.,4.8,0.,4.8,0.,4.8
1981-08-27 03:09:45.530 ,0,0,0.,4.8,0.,4.8,0.,4.8,0.,4.8
1981-08-27 03:09:50.330 ,0,0,0.,4.8,0.,4.8,0.,4.8,0.,4.8
1981-08-27 03:09:55.130 ,0,0,0.,4.8,0.,4.8,0.,4.8,0.,4.8
1981-08-27 03:09:59.930 ,0,0,0.,4.8,0.,4.8,0.,4.8,0.,4.8
1981-08-27 03:10:04.730 ,0,0,0.,4.8,0.,4.8,0.,4.8,0.,4.8
1981-08-27 03:10:09.530 ,0,0,0.,4.8,0.,4.8,0.,4.8,0.,4.8
1981-08-27 03:10:14.330 ,0,0,0.,4.8,0.,4.8,0.,4.8,0.,4.8
1981-08-27 03:10:19.130 ,0,0,0.,4.8,0.,4.8,0.,4.8,0.,4.8
1981-08-27 03:10:23.930 ,0,0,0.,4.8,0.,4.8,0.,4.8,0.,4.8
1981-08-27 03:10:28.730 ,0,0,0.,4.8,0.,4.8,0.,4.8,0.,4.8
1981-08-27 03:10:33.530 ,0,0,0.,4.8,0.,4.8,0.,4.8,0.,4.8
1981-08-27 03:10:38.330 ,0,0,0.,4.8,0.,4.8,0.,4.8,0.,4.8
1981-08-27 03:10:43.130 ,0,0,0.,4.8,0.,4.8,0.,4.8,0.,4.8
1981-08-27 03:10:47.930 ,0,0,0.,4.8,0.,4.8,0.,4.8,0.,4.8
1981-08-27 03:10:52.730 ,0,0,0.,4.8,0.,4.8,0.,4.8,0.,4.8
1981-08-27 03:10:57.530 ,0,0,0.,4.8,0.,4.8,0.,4.8,0.,4.8
1981-08-27 03:11:02.330 ,0,0,0.,4.8,0.,4.8,0.,4.8,0.,4.8
1981-08-27 03:11:07.130 ,0,0,0.,4.8,0.,4.8,0.,4.8,0.,4.8
1981-08-27 03:11:11.930 ,1,0,0.,4.8,0.,4.8,0.,4.8,0.,4.8
1981-08-27 03:11:16.730 ,1,0,0.,4.8,0.,4.8,0.,4.8,0.,4.8
1981-08-27 03:11:21.530 ,1,0,0.,4.8,0.,4.8,0.,4.8,0.,4.8
1981-08-27 03:11:26.330 ,1,0,0.,4.8,0.,4.8,0.,4.8,0.,4.8
1981-08-27 03:11:31.130 ,1,0,0.,4.8,0.,4.8,0.,4.8,0.,4.8
1981-08-27 03:11:35.930 ,1,0,0.,4.8,0.,4.8,0.,4.8,0.,4.8
1981-08-27 03:11:40.730 ,1,0,0.,4.8,0.,4.8,0.,4.8,0.,4.8
1981-08-27 03:11:45.530 ,1,0,0.,4.8,0.,4.8,0.,4.8,0.,4.8
1981-08-27 03:11:50.330 ,1,0,0.,4.8,0.,4.8,0.,4.8,0.,4.8
1981-08-27 03:11:55.130 ,1,0,0.,4.8,0.,4.8,0.,4.8,0.,4.8
1981-08-27 03:11:59.930 ,2,0,0.,4.8,0.,4.8,0.,4.8,0.,4.8
1981-08-27 03:12:04.730 ,2,0,0.,4.8,0.,4.8,0.,4.8,0.,4.8
1981-08-27 03:12:09.530 ,2,0,0.,4.8,0.,4.8,0.,4.8,0.,4.8
1981-08-27 03:12:14.330 ,2,0,0.,4.8,0.,4.8,0.,4.8,0.,4.8
1981-08-27 03:12:19.130 ,2,0,0.,4.8,0.,4.8,0.,4.8,0.,4.8
1981-08-27 03:12:23.930 ,2,0,0.,4.8,0.,4.8,0.,4.8,0.,4.8
1981-08-27 03:12:28.730 ,2,0,0.,4.8,0.,4.8,0.,4.8,0.,4.8
1981-08-27 03:12:33.530 ,2,0,0.,4.8,0.,4.8,0.,4.8,0.,4.8
1981-08-27 03:12:38.330 ,2,0,0.,4.8,0.,4.8,0.,4.8,0.,4.8
1981-08-27 03:12:43.130 ,2,0,0.,4.8,0.,4.8,0.,4.8,0.,4.8
1981-08-27 03:12:47.930 ,3,0,0.,4.8,0.,4.8,0.,4.8,0.,4.8
1981-08-27 03:12:52.730 ,3,0,0.,4.8,0.,4.8,0.,4.8,0.,4.8
1981-08-27 03:12:57.530 ,3,0,0.,4.8,0.,4.8,0.,4.8,0.,4.8
1981-08-27 03:13:02.330 ,3,0,0.,4.8,0.,4.8,0.,4.8,0.,4.8
1981-08-27 03:13:07.130 ,3,0,0.,4.8,0.,4.8,0.,4.8,0.,4.8
1981-08-27 03:13:11.930 ,3,0,0.,4.8,0.,4.8,0.,4.8,0.,4.8
1981-08-27 03:13:16.730 ,3,0,0.,4.8,0.,4.8,0.,4.8,0.,4.8
1981-08-27 03:13:21.530 ,3,0,0.,4.8,0.,4.8,0.,4.8,0.,4.8
1981-08-27 03:13:26.330 ,3,0,0.,4.8,0.,4.8,0.,4.8,0.,4.8
1981-08-27 03:13:31.130 ,3,0,0.,4.8,0.,4.8,0.,4.8,0.,4.8
1981-08-27 03:14:23.930 ,0,0,0.,4.8,0.,4.8,0.,4.8,0.,4.8
1981-08-27 03:14:28.730 ,0,0,0.,4.8,0.,4.8,0.,4.8,0.,4.8
1981-08-27 03:14:33.530 ,0,0,0.,4.8,0.,4.8,0.,4.8,0.,4.8
1981-08-27 03:14:38.330 ,0,0,0.,4.8,0.,4.8,0.,4.8,0.,4.8
1981-08-27 03:14:43.130 ,0,0,0.,4.8,0.,4.8,0.,4.8,0.,4.8
1981-08-27 03:14:47.930 ,0,0,0.,4.8,0.,4.8,0.,4.8,0.,4.8
1981-08-27 03:14:52.730 ,0,0,0.,4.8,0.,4.8,0.,4.8,0.,4.8
1981-08-27 03:14:57.530 ,0,0,0.,4.8,0.,4.8,0.,4.8,0.,4.8
1981-08-27 03:15:02.330 ,0,0,0.,4.8,0.,4.8,0.,4.8,0.,4.8
1981-08-27 03:15:07.130 ,0,0,0.,4.8,0.,4.8,0.,4.8,0.,4.8
1981-08-27 03:15:11.930 ,6,0,0.,4.8,0.,4.8,0.,4.8,0.,4.8
1981-08-27 03:15:16.730 ,6,0,0.,4.8,0.,4.8,0.,4.8,0.,4.8
1981-08-27 03:15:21.530 ,6,0,0.,4.8,0.,4.8,0.,4.8,0.,4.8
1981-08-27 03:15:26.330 ,6,0,0.,4.8,0.,4.8,0.,4.8,0.,4.8
1981-08-27 03:15:31.130 ,6,0,0.,4.8,0.,4.8,0.,4.8,0.,4.8
1981-08-27 03:15:35.930 ,6,0,0.,4.8,0.,4.8,0.,4.8,0.,4.8
1981-08-27 03:15:40.730 ,6,0,0.,4.8,0.,4.8,0.,4.8,0.,4.8
1981-08-27 03:15:45.530 ,6,0,0.,4.8,0.,4.8,0.,4.8,0.,4.8
1981-08-27 03:15:50.330 ,6,0,0.,4.8,0.,4.8,0.,4.8,0.,4.8
1981-08-27 03:15:55.130 ,6,0,0.,4.8,0.,4.8,0.,4.8,0.,4.8
1981-08-27 03:15:59.930 ,7,0,0.,4.8,0.,4.8,0.,4.8,0.,4.8
1981-08-27 03:16:04.730 ,7,0,0.,4.8,0.,4.8,0.,4.8,0.,4.8
1981-08-27 03:16:09.530 ,7,0,0.,4.8,0.,4.8,0.,4.8,0.,4.8
1981-08-27 03:16:14.330 ,7,0,0.,4.8,0.,4.8,0.,4.8,0.,4.8
1981-08-27 03:16:19.130 ,7,0,0.,4.8,0.,4.8,0.,4.8,0.,4.8
1981-08-27 03:16:23.930 ,7,0,0.,4.8,0.,4.8,0.,4.8,0.,4.8
1981-08-27 03:16:28.730 ,7,0,0.,4.8,0.,4.8,0.,4.8,0.,4.8
1981-08-27 03:16:33.530 ,7,0,0.,4.8,0.,4.8,0.,4.8,0.,4.8
1981-08-27 03:16:38.330 ,7,0,0.,4.8,0.,4.8,0.,4.8,0.,4.8
1981-08-27 03:16:43.130 ,7,0,0.,4.8,0.,4.8,0.,4.8,0.,4.8
1981-08-27 03:16:47.930 ,7,0,0.,4.8,0.,4.8,0.,4.8,0.,4.8
1981-08-27 03:16:52.730 ,7,0,0.,4.8,0.,4.8,0.,4.8,0.,4.8
1981-08-27 03:16:57.530 ,7,0,0.,4.8,0.,4.8,0.,4.8,0.,4.8
1981-08-27 03:17:02.330 ,7,0,0.,4.8,0.,4.8,0.,4.8,0.,4.8
1981-08-27 03:17:07.130 ,7,0,0.,4.8,0.,4.8,0.,4.8,0.,4.8
1981-08-27 03:17:11.930 ,7,0,0.,4.8,0.,4.8,0.,4.8,0.,4.8
1981-08-27 03:17:16.730 ,7,0,0.,4.8,0.,4.8,0.,4.8,0.,4.8
1981-08-27 03:17:21.530 ,7,0,0.,4.8,0.,4.8,0.,4.8,0.,4.8
1981-08-27 03:17:26.330 ,7,0,0.,4.8,0.,4.8,0.,4.8,0.,4.8
1981-08-27 03:17:31.130 ,7,0,0.,4.8,0.,4.8,0.,4.8,0.,4.8
1981-08-27 03:17:35.930 ,6,0,0.,4.8,0.,4.8,0.,4.8,0.,4.8
1981-08-27 03:17:40.730 ,6,0,0.,4.8,0.,4.8,0.,4.8,0.,4.8
1981-08-27 03:17:45.530 ,6,0,0.,4.8,0.,4.8,0.,4.8,0.,4.8
1981-08-27 03:17:50.330 ,6,0,0.,4.8,0.,4.8,0.,4.8,0.,4.8
1981-08-27 03:17:55.130 ,6,0,0.,4.8,0.,4.8,0.,4.8,0.,4.8
1981-08-27 03:17:59.930 ,6,0,0.,4.8,0.,4.8,0.,4.8,0.,4.8
1981-08-27 03:18:04.730 ,6,0,0.,4.8,0.,4.8,0.,4.8,0.,4.8
1981-08-27 03:18:09.530 ,6,0,0.,4.8,0.,4.8,0.,4.8,0.,4.8
1981-08-27 03:18:14.330 ,6,0,0.,4.8,0.,4.8,0.,4.8,0.,4.8
1981-08-27 03:18:19.130 ,6,0,0.,4.8,0.,4.8,0.,4.8,0.,4.8
1981-08-27 03:18:23.930 ,5,0,0.,4.8,0.,4.8,0.,4.8,0.,4.8
1981-08-27 03:18:28.730 ,5,0,0.,4.8,0.,4.8,0.,4.8,0.,4.8
1981-08-27 03:18:33.530 ,5,0,0.,4.8,0.,4.8,0.,4.8,0.,4.8
1981-08-27 03:18:38.330 ,5,0,0.,4.8,0.,4.8,0.,4.8,0.,4.8
1981-08-27 03:18:43.130 ,5,0,0.,4.8,0.,4.8,0.,4.8,0.,4.8
1981-08-27 03:18:47.930 ,5,0,0.,4.8,0.,4.8,0.,4.8,0.,4.8
1981-08-27 03:18:52.730 ,5,0,0.,4.8,0.,4.8,0.,4.8,0.,4.8
1981-08-27 03:18:57.530 ,5,0,0.,4.8,0.,4.8,0.,4.8,0.,4.8
1981-08-27 03:19:02.330 ,5,0,0.,4.8,0.,4.8,0.,4.8,0.,4.8
1981-08-27 03:19:07.130 ,5,0,0.,4.8,0.,4.8,0.,4.8,0.,4.8
1981-08-27 03:19:11.930 ,4,0,0.,4.8,0.,4.8,0.,4.8,0.,4.8
1981-08-27 03:19:16.730 ,4,0,0.,4.8,0.,4.8,0.,4.8,0.,4.8
1981-08-27 03:19:21.530 ,4,0,0.,4.8,0.,4.8,0.,4.8,0.,4.8
1981-08-27 03:19:26.330 ,4,0,0.,4.8,0.,4.8,0.,4.8,0.,4.8
1981-08-27 03:19:31.130 ,4,0,0.,4.8,0.,4.8,0.,4.8,0.,4.8
1981-08-27 03:19:35.930 ,4,0,0.,4.8,0.,4.8,0.,4.8,0.,4.8
1981-08-27 03:19:40.730 ,4,0,0.,4.8,0.,4.8,0.,4.8,0.,4.8
1981-08-27 03:19:45.530 ,4,0,0.,4.8,0.,4.8,0.,4.8,0.,4.8
1981-08-27 03:19:50.330 ,4,0,0.,4.8,0.,4.8,0.,4.8,0.,4.8
1981-08-27 03:19:55.130 ,4,0,0.,4.8,0.,4.8,0.,4.8,0.,4.8
1981-08-27 03:19:59.930 ,3,0,0.,4.8,0.,4.8,0.,4.8,0.,4.8
1981-08-27 03:20:04.730 ,3,0,0.,4.8,0.,4.8,0.,4.8,0.,4.8
1981-08-27 03:20:09.530 ,3,0,0.,4.8,0.,4.8,0.,4.8,0.,4.8
1981-08-27 03:20:14.330 ,3,0,0.,4.8,0.,4.8,0.,4.8,0.,4.8
1981-08-27 03:20:19.130 ,3,0,0.,4.8,0.,4.8,0.,4.8,0.,4.8
1981-08-27 03:20:23.930 ,3,0,0.,4.8,0.,4.8,0.,4.8,0.,4.8
1981-08-27 03:20:28.730 ,3,0,0.,4.8,0.,4.8,0.,4.8,0.,4.8
1981-08-27 03:20:33.530 ,3,0,0.,4.8,0.,4.8,0.,4.8,0.,4.8
1981-08-27 03:20:38.330 ,3,0,0.,4.8,0.,4.8,0.,4.8,0.,4.8
1981-08-27 03:20:43.130 ,3,0,0.,4.8,0.,4.8,0.,4.8,0.,4.8
1981-08-27 03:20:47.930 ,2,0,0.,4.8,0.,4.8,0.,4.8,0.,4.8
1981-08-27 03:20:52.730 ,2,0,0.,4.8,0.,4.8,0.,4.8,0.,4.8
1981-08-27 03:20:57.530 ,2,0,0.,4.8,0.,4.8,0.,4.8,0.,4.8
1981-08-27 03:21:02.330 ,2,0,0.,4.8,0.,4.8,0.,4.8,0.,4.8
1981-08-27 03:21:07.130 ,2,0,0.,4.8,0.,4.8,0.,4.8,0.,4.8
1981-08-27 03:21:11.930 ,2,0,0.,4.8,0.,4.8,0.,4.8,0.,4.8
1981-08-27 03:21:16.730 ,2,0,0.,4.8,0.,4.8,0.,4.8,0.,4.8
1981-08-27 03:21:21.530 ,2,0,0.,4.8,0.,4.8,0.,4.8,0.,4.8
1981-08-27 03:21:26.330 ,2,0,0.,4.8,0.,4.8,0.,4.8,0.,4.8
1981-08-27 03:21:31.130 ,2,0,0.,4.8,0.,4.8,0.,4.8,0.,4.8
1981-08-27 03:21:35.930 ,1,0,0.,4.8,0.,4.8,0.,4.8,0.,4.8
1981-08-27 03:21:40.730 ,1,0,0.,4.8,0.,4.8,0.,4.8,0.,4.8
1981-08-27 03:21:45.530 ,1,0,0.,4.8,0.,4.8,0.,4.8,0.,4.8
1981-08-27 03:21:50.330 ,1,0,0.,4.8,0.,4.8,0.,4.8,0.,4.8
1981-08-27 03:21:55.130 ,1,0,0.,4.8,0.,4.8,0.,4.8,0.,4.8
1981-08-27 03:21:59.930 ,1,0,0.,4.8,0.,4.8,0.,4.8,0.,4.8
1981-08-27 03:22:04.730 ,1,0,0.,4.8,0.,4.8,0.,4.8,0.,4.8
1981-08-27 03:22:09.530 ,1,0,0.,4.8,0.,4.8,0.,4.8,0.,4.8
1981-08-27 03:22:14.330 ,1,0,0.,4.8,0.,4.8,0.,4.8,0.,4.8
1981-08-27 03:22:19.130 ,1,0,0.,4.8,0.,4.8,0.,4.8,0.,4.8
1981-08-27 03:22:23.930 ,0,0,0.,4.8,0.,4.8,0.,4.8,0.,4.8
1981-08-27 03:22:28.730 ,0,0,0.,4.8,0.,4.8,0.,4.8,0.,4.8
1981-08-27 03:22:33.530 ,0,0,0.,4.8,0.,4.8,0.,4.8,0.,4.8
1981-08-27 03:22:38.330 ,0,0,0.,4.8,0.,4.8,0.,4.8,0.,4.8
1981-08-27 03:22:43.130 ,0,0,0.,4.8,0.,4.8,0.,4.8,0.,4.8
1981-08-27 03:22:47.930 ,0,0,0.,4.8,0.,4.8,0.,4.8,0.,4.8
1981-08-27 03:22:52.730 ,0,0,0.,4.8,0.,4.8,0.,4.8,0.,4.8
1981-08-27 03:22:57.530 ,0,0,0.,4.8,0.,4.8,0.,4.8,0.,4.8
1981-08-27 03:23:02.330 ,0,0,0.,4.8,0.,4.8,0.,4.8,0.,4.8
1981-08-27 03:23:07.130 ,0,0,0.,4.8,0.,4.8,0.,4.8,0.,4.8
1981-08-27 03:23:11.930 ,0,0,0.,4.8,0.,4.8,0.,4.8,0.,4.8
1981-08-27 03:23:16.730 ,0,0,0.,4.8,0.,4.8,0.,4.8,0.,4.8
1981-08-27 03:23:21.530 ,0,0,0.,4.8,0.,4.8,0.,4.8,0.,4.8
1981-08-27 03:23:26.330 ,0,0,0.,4.8,0.,4.8,0.,4.8,0.,4.8
1981-08-27 03:23:31.130 ,0,0,0.,4.8,0.,4.8,0.,4.8,0.,4.8
1981-08-27 03:23:35.930 ,0,0,0.,4.8,0.,4.8,0.,4.8,0.,4.8
1981-08-27 03:23:40.730 ,0,0,0.,4.8,0.,4.8,0.,4.8,0.,4.8
1981-08-27 03:23:45.530 ,0,0,0.,4.8,0.,4.8,0.,4.8,0.,4.8
1981-08-27 03:23:50.330 ,0,0,0.,4.8,0.,4.8,0.,4.8,0.,4.8
1981-08-27 03:23:55.130 ,0,0,0.,4.8,0.,4.8,0.,4.8,0.,4.8
1981-08-27 03:23:59.930 ,1,0,0.,4.8,0.,4.8,0.,4.8,0.,4.8
1981-08-27 03:24:04.730 ,1,0,0.,4.8,0.,4.8,0.,4.8,0.,4.8
1981-08-27 03:24:09.530 ,1,0,0.,4.8,0.,4.8,0.,4.8,0.,4.8
1981-08-27 03:24:14.330 ,1,0,0.,4.8,0.,4.8,0.,4.8,0.,4.8
1981-08-27 03:24:19.130 ,1,0,0.,4.8,0.,4.8,0.,4.8,0.,4.8
1981-08-27 03:24:23.930 ,1,0,0.,4.8,0.,4.8,0.,4.8,0.,4.8
1981-08-27 03:24:28.730 ,1,0,0.,4.8,0.,4.8,0.,4.8,0.,4.8
1981-08-27 03:24:33.530 ,1,0,0.,4.8,0.,4.8,0.,4.8,0.,4.8
1981-08-27 03:24:38.330 ,1,0,0.,4.8,0.,4.8,0.,4.8,0.,4.8
1981-08-27 03:24:43.130 ,1,0,0.,4.8,0.,4.8,0.,4.8,0.,4.8
1981-08-27 03:24:47.930 ,2,0,0.,4.8,0.,4.8,0.,4.8,0.,4.8
1981-08-27 03:24:52.730 ,2,0,0.,4.8,0.,4.8,0.,4.8,0.,4.8
1981-08-27 03:24:57.530 ,2,0,0.,4.8,0.,4.8,0.,4.8,0.,4.8
1981-08-27 03:25:02.330 ,2,0,0.,4.8,0.,4.8,0.,4.8,0.,4.8
1981-08-27 03:25:07.130 ,2,0,0.,4.8,0.,4.8,0.,4.8,0.,4.8
1981-08-27 03:25:11.930 ,2,0,0.,4.8,0.,4.8,0.,4.8,0.,4.8
1981-08-27 03:25:16.730 ,2,0,0.,4.8,0.,4.8,0.,4.8,0.,4.8
1981-08-27 03:25:21.530 ,2,0,0.,4.8,0.,4.8,0.,4.8,0.,4.8
1981-08-27 03:25:26.330 ,2,0,0.,4.8,0.,4.8,0.,4.8,0.,4.8
1981-08-27 03:25:31.130 ,2,0,0.,4.8,0.,4.8,0.,4.8,0.,4.8
1981-08-27 03:25:35.930 ,3,0,0.,4.8,0.,4.8,0.,4.8,0.,4.8
1981-08-27 03:25:40.730 ,3,0,0.,4.8,0.,4.8,0.,4.8,0.,4.8
1981-08-27 03:25:45.530 ,3,0,0.,4.8,0.,4.8,0.,4.8,0.,4.8
1981-08-27 03:25:50.330 ,3,0,0.,4.8,0.,4.8,0.,4.8,0.,4.8
1981-08-27 03:25:55.130 ,3,0,0.,4.8,0.,4.8,0.,4.8,0.,4.8
1981-08-27 03:25:59.930 ,3,0,0.,4.8,0.,4.8,0.,4.8,0.,4.8
1981-08-27 03:26:04.730 ,3,0,0.,4.8,0.,4.8,0.,4.8,0.,4.8
1981-08-27 03:26:09.530 ,3,0,0.,4.8,0.,4.8,0.,4.8,0.,4.8
1981-08-27 03:26:14.330 ,3,0,0.,4.8,0.,4.8,0.,4.8,0.,4.8
1981-08-27 03:26:19.130 ,3,0,0.,4.8,0.,4.8,0.,4.8,0.,4.8
1981-08-27 03:26:23.930 ,4,0,0.,4.8,0.,4.8,0.,4.8,0.,4.8
1981-08-27 03:26:28.730 ,4,0,0.,4.8,0.,4.8,0.,4.8,0.,4.8
1981-08-27 03:26:33.530 ,4,0,0.,4.8,0.,4.8,0.,4.8,0.,4.8
1981-08-27 03:26:38.330 ,4,0,0.,4.8,0.,4.8,0.,4.8,0.,4.8
1981-08-27 03:26:43.130 ,4,0,0.,4.8,0.,4.8,0.,4.8,0.,4.8
1981-08-27 03:26:47.930 ,4,0,0.,4.8,0.,4.8,0.,4.8,0.,4.8
1981-08-27 03:26:52.730 ,4,0,0.,4.8,0.,4.8,0.,4.8,0.,4.8
1981-08-27 03:26:57.530 ,4,0,0.,4.8,0.,4.8,0.,4.8,0.,4.8
1981-08-27 03:27:02.330 ,4,0,0.,4.8,0.,4.8,0.,4.8,0.,4.8
1981-08-27 03:27:07.130 ,4,0,0.,4.8,0.,4.8,0.,4.8,0.,4.8
1981-08-27 03:27:11.930 ,5,0,0.,4.8,0.,4.8,0.,4.8,0.,4.8
1981-08-27 03:27:16.730 ,5,0,0.,4.8,0.,4.8,0.,4.8,0.,4.8
1981-08-27 03:27:21.530 ,5,0,0.,4.8,0.,4.8,0.,4.8,0.,4.8
1981-08-27 03:27:26.330 ,5,0,0.,4.8,0.,4.8,0.,4.8,0.,4.8
1981-08-27 03:27:31.130 ,5,0,0.,4.8,0.,4.8,0.,4.8,0.,4.8
1981-08-27 03:27:35.930 ,5,0,0.,4.8,0.,4.8,0.,4.8,0.,4.8
1981-08-27 03:27:40.730 ,5,0,0.,4.8,0.,4.8,0.,4.8,0.,4.8
1981-08-27 03:27:45.530 ,5,0,0.,4.8,0.,4.8,0.,4.8,0.,4.8
1981-08-27 03:27:50.330 ,5,0,0.,4.8,0.,4.8,0.,4.8,0.,4.8
1981-08-27 03:27:55.130 ,5,0,0.,4.8,0.,4.8,0.,4.8,0.,4.8
1981-08-27 03:27:59.930 ,6,0,0.,4.8,0.,4.8,0.,4.8,0.,4.8
1981-08-27 03:28:04.730 ,6,0,0.,4.8,0.,4.8,0.,4.8,0.,4.8
1981-08-27 03:28:09.530 ,6,0,0.,4.8,0.,4.8,0.,4.8,0.,4.8
1981-08-27 03:28:14.330 ,6,0,0.,4.8,0.,4.8,0.,4.8,0.,4.8
1981-08-27 03:28:19.130 ,6,0,0.,4.8,0.,4.8,0.,4.8,0.,4.8
1981-08-27 03:28:23.930 ,6,0,0.,4.8,0.,4.8,0.,4.8,0.,4.8
1981-08-27 03:28:28.730 ,6,0,0.,4.8,0.,4.8,0.,4.8,0.,4.8
1981-08-27 03:28:33.530 ,6,0,0.,4.8,0.,4.8,0.,4.8,0.,4.8
1981-08-27 03:28:38.330 ,6,0,0.,4.8,0.,4.8,0.,4.8,0.,4.8
1981-08-27 03:28:43.130 ,6,0,0.,4.8,0.,4.8,0.,4.8,0.,4.8
1981-08-27 03:28:47.930 ,7,0,0.,4.8,0.,4.8,0.,4.8,0.,4.8
1981-08-27 03:28:52.730 ,7,0,0.,4.8,0.,4.8,0.,4.8,0.,4.8
1981-08-27 03:28:57.530 ,7,0,0.,4.8,0.,4.8,0.,4.8,0.,4.8
1981-08-27 03:29:02.330 ,7,0,0.,4.8,0.,4.8,0.,4.8,0.,4.8
1981-08-27 03:29:07.130 ,7,0,0.,4.8,0.,4.8,0.,4.8,0.,4.8
1981-08-27 03:29:11.930 ,7,0,0.,4.8,0.,4.8,0.,4.8,0.,4.8
1981-08-27 03:29:16.730 ,7,0,0.,4.8,0.,4.8,0.,4.8,0.,4.8
1981-08-27 03:29:21.530 ,7,0,0.,4.8,0.,4.8,0.,4.8,0.,4.8
1981-08-27 03:29:26.330 ,7,0,0.,4.8,0.,4.8,0.,4.8,0.,4.8
1981-08-27 03:29:31.130 ,7,0,0.,4.8,0.,4.8,0.,4.8,0.,4.8
1981-08-27 03:29:35.930 ,7,0,0.,4.8,0.,4.8,0.,4.8,0.,4.8
1981-08-27 03:29:40.730 ,7,0,0.,4.8,0.,4.8,0.,4.8,0.,4.8
1981-08-27 03:29:45.530 ,7,0,0.,4.8,0.,4.8,0.,4.8,0.,4.8
1981-08-27 03:29:50.330 ,7,0,0.,4.8,0.,4.8,0.,4.8,0.,4.8
1981-08-27 03:29:55.130 ,7,0,0.,4.8,0.,4.8,0.,4.8,0.,4.8
1981-08-27 03:29:59.930 ,7,0,0.,4.8,0.,4.8,0.,4.8,0.,4.8
1981-08-27 03:30:04.730 ,7,0,0.,4.8,0.,4.8,0.,4.8,0.,4.8
1981-08-27 03:30:09.530 ,7,0,0.,4.8,0.,4.8,0.,4.8,0.,4.8
1981-08-27 03:30:14.330 ,7,0,0.,4.8,0.,4.8,0.,4.8,0.,4.8
1981-08-27 03:30:19.130 ,7,0,0.,4.8,0.,4.8,0.,4.8,0.,4.8
1981-08-27 03:30:23.920 ,6,0,0.,4.8,0.,4.8,0.,4.8,0.,4.8
1981-08-27 03:30:28.720 ,6,0,0.,4.8,0.,4.8,0.,4.8,0.,4.8
1981-08-27 03:30:33.520 ,6,0,0.,4.8,0.,4.8,0.,4.8,0.,4.8
1981-08-27 03:30:38.320 ,6,0,0.,4.8,0.,4.8,0.,4.8,0.,4.8
1981-08-27 03:30:43.130 ,6,0,0.,4.8,0.,4.8,0.,4.8,0.,4.8
1981-08-27 03:30:47.920 ,6,0,0.,4.8,0.,4.8,0.,4.8,0.,4.8
1981-08-27 03:30:52.720 ,6,0,0.,4.8,0.,4.8,0.,4.8,0.,4.8
1981-08-27 03:30:57.520 ,6,0,0.,4.8,0.,4.8,0.,4.8,0.,4.8
1981-08-27 03:31:02.320 ,6,0,0.,4.8,0.,4.8,0.,4.8,0.,4.8
1981-08-27 03:31:07.130 ,6,0,0.,4.8,0.,4.8,0.,4.8,0.,4.8
1981-08-27 03:31:11.920 ,5,0,0.,4.8,0.,4.8,0.,4.8,0.,4.8
1981-08-27 03:31:16.720 ,5,0,0.,4.8,0.,4.8,0.,4.8,0.,4.8
1981-08-27 03:31:21.520 ,5,0,0.,4.8,0.,4.8,0.,4.8,0.,4.8
1981-08-27 03:31:26.320 ,5,0,0.,4.8,0.,4.8,0.,4.8,0.,4.8
1981-08-27 03:31:31.130 ,5,0,0.,4.8,0.,4.8,0.,4.8,0.,4.8
1981-08-27 03:31:35.920 ,5,0,0.,4.8,0.,4.8,0.,4.8,0.,4.8
1981-08-27 03:31:40.720 ,5,0,0.,4.8,0.,4.8,0.,4.8,0.,4.8
1981-08-27 03:31:45.520 ,5,0,0.,4.8,0.,4.8,0.,4.8,0.,4.8
1981-08-27 03:31:50.320 ,5,0,0.,4.8,0.,4.8,0.,4.8,0.,4.8
1981-08-27 03:31:55.130 ,5,0,0.,4.8,0.,4.8,0.,4.8,0.,4.8
1981-08-27 03:31:59.920 ,4,0,0.,4.8,0.,4.8,0.,4.8,0.,4.8
1981-08-27 03:32:04.720 ,4,0,0.,4.8,0.,4.8,0.,4.8,0.,4.8
1981-08-27 03:32:09.520 ,4,0,0.,4.8,0.,4.8,0.,4.8,0.,4.8
1981-08-27 03:32:14.320 ,4,0,0.,4.8,0.,4.8,0.,4.8,0.,4.8
1981-08-27 03:32:19.130 ,4,0,0.,4.8,0.,4.8,0.,4.8,0.,4.8
1981-08-27 03:32:23.920 ,4,0,0.,4.8,0.,4.8,0.,4.8,0.,4.8
1981-08-27 03:32:28.720 ,4,0,0.,4.8,0.,4.8,0.,4.8,0.,4.8
1981-08-27 03:32:33.520 ,4,0,0.,4.8,0.,4.8,0.,4.8,0.,4.8
1981-08-27 03:32:38.320 ,4,0,0.,4.8,0.,4.8,0.,4.8,0.,4.8
1981-08-27 03:32:43.130 ,4,0,0.,4.8,0.,4.8,0.,4.8,0.,4.8
1981-08-27 03:32:47.920 ,3,0,0.,4.8,0.,4.8,0.,4.8,0.,4.8
1981-08-27 03:32:52.720 ,3,0,0.,4.8,0.,4.8,0.,4.8,0.,4.8
1981-08-27 03:32:57.520 ,3,0,0.,4.8,0.,4.8,0.,4.8,0.,4.8
1981-08-27 03:33:02.320 ,3,0,0.,4.8,0.,4.8,0.,4.8,0.,4.8
1981-08-27 03:33:07.130 ,3,0,0.,4.8,0.,4.8,0.,4.8,0.,4.8
1981-08-27 03:33:11.920 ,3,0,0.,4.8,0.,4.8,0.,4.8,0.,4.8
1981-08-27 03:33:16.720 ,3,0,0.,4.8,0.,4.8,0.,4.8,0.,4.8
1981-08-27 03:33:21.520 ,3,0,0.,4.8,0.,4.8,0.,4.8,0.,4.8
1981-08-27 03:33:26.320 ,3,0,0.,4.8,0.,4.8,0.,4.8,0.,4.8
1981-08-27 03:33:31.130 ,3,0,0.,4.8,0.,4.8,0.,4.8,0.,4.8
1981-08-27 03:33:35.920 ,2,0,0.,4.8,0.,4.8,0.,4.8,0.,4.8
1981-08-27 03:33:40.720 ,2,0,0.,4.8,0.,4.8,0.,4.8,0.,4.8
1981-08-27 03:33:45.520 ,2,0,0.,4.8,0.,4.8,0.,4.8,0.,4.8
1981-08-27 03:33:50.320 ,2,0,0.,4.8,0.,4.8,0.,4.8,0.,4.8
1981-08-27 03:33:55.130 ,2,0,0.,4.8,0.,4.8,0.,4.8,0.,4.8
1981-08-27 03:33:59.920 ,2,0,0.,4.8,0.,4.8,0.,4.8,0.,4.8
1981-08-27 03:34:04.720 ,2,0,0.,4.8,0.,4.8,0.,4.8,0.,4.8